[Iaude] MPEC F37: 2024 FX [a=2.24,e=0.89,i=7.9,H=21.4,PHA]

mpec at cfa.harvard.edu mpec at cfa.harvard.edu
Tue Mar 19 16:40:17 EDT 2024


M.P.E.C. 2024-F37                                Issued 2024 March 19, 20:38 UT

     The Minor Planet Electronic Circulars contain information on unusual
         minor planets, routine data on comets and natural satellites,
         and occasional editorial announcements.  They are published
    on behalf of Division F of the International Astronomical Union by the
          Minor Planet Center, Smithsonian Astrophysical Observatory,
                          Cambridge, MA 02138, U.S.A.
			  
             Prepared using the Tamkin Foundation Computer Network

                              MPC at CFA.HARVARD.EDU
            URL https://www.minorplanetcenter.net/    ISSN 1523-6714

                                    2024 FX                                     


Observations:
     K24F00X* C2024 03 17.30128411 07 30.127+43 04 13.74         20.44wXEF037F52
     K24F00X  C2024 03 17.31307811 07 26.482+43 03 14.13         20.46wXEF037F52
     K24F00X  C2024 03 17.32481811 07 22.847+43 02 14.71         20.43wXEF037F52
     K24F00X 2C2024 03 17.38577511 07 04.012+42 57 06.72         20.8 GWEF037T12
     K24F00X 2C2024 03 17.38728911 07 03.542+42 56 59.17         20.6 GWEF037T12
     K24F00X 2C2024 03 17.38881911 07 03.084+42 56 51.22         20.7 GWEF037T12
     K24F00X 2C2024 03 17.39075211 07 02.485+42 56 41.63         20.6 GWEF037T12
     K24F00X  C2024 03 17.39377411 07 01.581+42 56 25.76         20.15GVEF037F52
     K24F00X  C2024 03 17.39459611 07 01.328+42 56 21.53         20.17GVEF037F52
     K24F00X 1C2024 03 17.79548 11 05 09.45 +42 22 41.9          20.6 VXEF037033
     K24F00X 1C2024 03 17.79617 11 05 09.26 +42 22 38.3          21.1 VXEF037033
     K24F00X 1C2024 03 17.79686 11 05 09.03 +42 22 35.3          21.0 VXEF037033
     K24F00X 1C2024 03 17.92245 11 04 34.01 +42 12 28.8          20.1 VXEF037033
     K24F00X 1C2024 03 17.92332 11 04 33.74 +42 12 24.7          20.3 VXEF037033
     K24F00X 1C2024 03 17.92419 11 04 33.52 +42 12 20.7          20.1 VXEF037033
     K24F00X 1C2024 03 17.92506 11 04 33.27 +42 12 16.5          20.2 VXEF037033
     K24F00X KB2024 03 18.06312 11 03 56.05 +42 01 23.2          20.6 VqEF037Y66
     K24F00X KB2024 03 18.06382 11 03 55.87 +42 01 20.2          20.8 VqEF037Y66
     K24F00X KB2024 03 18.06451 11 03 55.64 +42 01 16.6          21.5 VqEF037Y66
     K24F00X KB2024 03 18.06521 11 03 55.45 +42 01 13.4          21.3 VqEF037Y66
     K24F00X KB2024 03 18.06584 11 03 55.28 +42 01 09.9          20.8 VqEF037Y66
     K24F00X KC2024 03 18.12929911 03 40.51 +41 56 00.9          20.6 GVEF037H21
     K24F00X KC2024 03 18.13349611 03 39.35 +41 55 41.5          21.2 GVEF037H21
     K24F00X KC2024 03 18.13909111 03 37.86 +41 55 15.0          21.0 GVEF037H21
     K24F00X 1C2024 03 18.26401011 03 05.513+41 45 22.06               LEF037658
     K24F00X 1C2024 03 18.26767911 03 04.547+41 45 04.98               LEF037658
     K24F00X 1C2024 03 18.27043411 03 03.837+41 44 52.64               LEF037658
     K24F00X 1C2024 03 18.27686911 03 02.105+41 44 22.95               LEF037658
     K24F00X KB2024 03 18.79545 11 00 57.10 +41 04 46.9                XEF037M45
     K24F00X KB2024 03 18.79881 11 00 56.23 +41 04 32.2          20.1 GXEF037M45
     K24F00X KC2024 03 19.10137610 59 48.02 +40 42 24.2          20.4 GVEF037H21
     K24F00X KC2024 03 19.11256910 59 45.44 +40 41 36.2          20.6 GVEF037H21
     K24F00X KC2024 03 19.11564510 59 44.73 +40 41 23.1          20.7 GVEF037H21
     K24F00X 1C2024 03 19.16854910 59 33.292+40 37 36.16         20.63GVEF037G96
     K24F00X 1C2024 03 19.17541510 59 31.657+40 37 07.07         20.48GVEF037G96
     K24F00X 1C2024 03 19.18229510 59 30.109+40 36 37.51         20.03GVEF037G96
     K24F00X 1C2024 03 19.31613210 59 01.107+40 27 09.40         20.66GVEF037T12
     K24F00X 1C2024 03 19.31891210 59 00.466+40 26 57.53         20.69GVEF037T12
     K24F00X KC2024 03 19.76611 10 57 28.16 +39 55 33.1          21.0 GVEF037C82
     K24F00X KC2024 03 19.78510 10 57 24.24 +39 54 17.3          20.2 GVEF037C82
     K24F00X KB2024 03 19.80472310 57 20.37 +39 52 55.4          19.6 GXEF037I93
     K24F00X KB2024 03 19.81532610 57 18.18 +39 52 12.6          20.3 GXEF037I93

Observer details:
033 Karl Schwarzschild Observatory, Tautenburg.  Observers S. Melnikov, C.
    Hogner, F. Ludwig, M. Hartmann, B. Stecklum.  Measurer B. Stecklum.
    1.34-m f/3 Schmidt + CCD.
658 National Research Council of Canada.  Observers D. D. Balam, C. E. Spratt.
    Measurers D. D. Balam, D. W. E. Green.  1.82-m Reflector + CCD.
C82 Osservatorio Astronomico Nastro Verde, Sorrento.  Observer N. Ruocco.
    0.35-m f/6.3  Schmidt-Cassegrain + CCD.
F52 Pan-STARRS 2, Haleakala.  Observers J. Herman, T. Lowe, P. Minguez, A.
    Schultz, I. Smith.  Measurers K. Chambers, T. de Boer, J. Fairlamb, H.
    Gao, M. Huber, C.-C. Lin, E. Magnier, Y. Ramanjooloo, R. Wainscoat, R.
    Weryk.  1.8-m Ritchey-Chretien + CCD.
G96 Mt. Lemmon Survey.  Observer G. J. Leonard.  Measurers T. Beuden, V. F.
    Carvajal, D. Fay, J. B. Fazekas, D. C. Fuls, A. R. Gibbs, A. D. Grauer, H.
    Groeller, J. K. Hogan, R. A. Kowalski, S. M. Larson, G. J. Leonard, D.
    Rankin, R. L. Seaman, F. C. Shelly, K. W. Wierzchos.  1.5-m reflector +
    10K CCD.
H21 Astronomical Research Observatory, Westfield.  Observer R. Holmes.
    Measurers T. Linder, R. Holmes, L. Horn.  0.76-m f/3.0 astrograph + CCD.
I93 St Pardon de Conques.  Observer F. Losse.  0.40-m f/3.7 reflector + CCD.
M45 Starhopper Observatory, Sfantu Gheorghe.  Observer F. Ursache.  0.41-m
    f/7.5 reflector + CMO.
T12 University of Hawaii 88-inch telescope, Maunakea.  Observers Y.
    Ramanjooloo, J. Fairlamb.  Measurers Y. Ramanjooloo, R. Wainscoat, R.
    Weryk, J. Fairlamb.  2.24-m University of Hawaii reflector + CCD, 2.24-m
    f/10.1 reflector + CCD.
Y66 Two-Meter Twin Telescope, TTT2, Teide.  Observer M. Serra.  Measurer M.
    Hierro.  0.80-m f/4.38 reflector + CMO.

Orbital elements:
2024 FX                                             PHA, Earth MOID = 0.0152 AU
Epoch 2024 Mar. 31.0 TT = JDT 2460400.5                 Veres                   
M  19.46927              (2000.0)            P               Q                  
n   0.29413133     Peri.  302.22269     +0.79533752     -0.59043099             
a   2.2392806      Node    94.32484     +0.59210228     +0.70823477             
e   0.8938426      Incl.    7.90971     +0.12981959     +0.38703328             
P   3.35           H   21.41          G   0.15           U   9                  
Residuals in seconds of arc
240317 F52  0.3+  0.2+    240317 033  0.2+  0.5+    240318 M45 (1.9-  3.2-)
240317 F52  0.3+  0.2+    240317 033  0.1+  0.4+    240318 M45 (2.6-  3.0-)
240317 F52  0.2+  0.1+    240318 Y66  0.2+  0.1-    240319 H21  0.1+  0.0
240317 T12  0.1+  0.1+    240318 Y66  0.4+  0.3+    240319 H21  0.2+  0.1+
240317 T12  0.1+  0.3+    240318 Y66  0.1-  0.0     240319 H21  0.2+  0.2+
240317 T12  0.2+  0.1+    240318 Y66  0.0   0.1+    240319 G96  0.4+  0.1-
240317 T12  0.2+  0.3+    240318 Y66  0.0   0.3-    240319 G96  0.3-  0.1+
240317 F52  0.1+  0.2+    240318 H21  0.1+  0.2-    240319 G96  0.0   0.1-
240317 F52  0.1+  0.1+    240318 H21  0.2-  0.1+    240319 T12  0.1+  0.1+
240317 033  0.9+  0.2+    240318 H21  0.1-  0.1-    240319 T12  0.1-  0.0
240317 033  0.9+  0.1-    240318 658  0.9-  1.0-    240319 C82  0.3-  0.7-
240317 033  0.5+  0.2+    240318 658  0.9-  0.9-    240319 C82  0.3-  0.2+
240317 033  0.3+  0.2+    240318 658  0.7-  0.4-    240319 I93  0.3-  1.3+
240317 033  0.0   0.3+    240318 658  1.2-  0.1-    240319 I93  0.5-  1.2+

Ephemeris:
2024 FX                  a,e,i = 2.24, 0.89, 8                   q = 0.2377
Date    TT    R. A. (2000) Decl.     Delta      r    Elong.  Phase     V
2024 02 18    21 23 56.1 +01 25 30   0.2970  0.7084    16.5   156.7    28.0
...
2024 03 04    17 47 10.9 +60 55 42   0.1301  0.9999    89.9    82.6    19.9
...
2024 03 12    11 52 55.2 +52 57 13   0.2088  1.1395   130.1    41.8    19.9
...
2024 03 18    11 04 13.4 +42 06 23   0.3059  1.2383   137.5    32.9    20.7
2024 03 19    11 00 09.7 +40 49 53   0.3234  1.2544   137.9    32.2    20.8
2024 03 20    10 56 40.9 +39 39 53   0.3411  1.2703   138.1    31.6    20.9
...
2024 03 26    10 43 36.5 +34 19 21   0.4518  1.3633   137.0    29.9    21.7
...
2024 04 03    10 36 47.4 +29 45 56   0.6083  1.4814   132.7    29.7    22.5
...
2024 04 18    10 36 46.1 +24 27 58   0.9226  1.6872   122.2    30.2    23.7

M. P. C. Staff               (C) Copyright 2024 MPC           M.P.E.C. 2024-F37





More information about the Iaude mailing list